This is the latest recevied weather packets stored in our database for station/object DK4SDR-10. If no packets are shown the sender has not sent any weather packets the latest 10 day(s).
| Time | Temp. | Humidity | Pressure | Rain* | Wind** | Luminosity | Snow |
|---|---|---|---|---|---|---|---|
| 1777584509 | 14.44° C | 30% | 1027.5 hPa | - | - | - | - |
| 1777583610 | 14.44° C | 30% | 1027.4 hPa | - | - | - | - |
| 1777582710 | 15° C | 29% | 1027.3 hPa | - | - | - | - |
| 1777581809 | 15.56° C | 28% | 1027.3 hPa | - | - | - | - |
| 1777580909 | 15.56° C | 27% | 1027.3 hPa | - | - | - | - |
| 1777580010 | 16.11° C | 27% | 1027.3 hPa | - | - | - | - |
| 1777579109 | 16.67° C | 26% | 1027.1 hPa | - | - | - | - |
| 1777578209 | 17.22° C | 25% | 1027 hPa | - | - | - | - |
| 1777577309 | 17.78° C | 24% | 1026.9 hPa | - | - | - | - |
| 1777576409 | 18.33° C | 23% | 1026.8 hPa | - | - | - | - |
| 1777575509 | 19.44° C | 22% | 1026.6 hPa | - | - | - | - |
| 1777574609 | 20° C | 20% | 1026.4 hPa | - | - | - | - |
| 1777573709 | 21.11° C | 20% | 1026.2 hPa | - | - | - | - |
| 1777571909 | 22.78° C | 17% | 1026 hPa | - | - | - | - |
| 1777571009 | 23.33° C | 15% | 1026.1 hPa | - | - | - | - |
| 1777569209 | 25° C | 14% | 1026 hPa | - | - | - | - |
| 1777568309 | 26.11° C | 13% | 1026 hPa | - | - | - | - |
| 1777567409 | 27.22° C | 12% | 1026 hPa | - | - | - | - |
| 1777566509 | 28.89° C | 12% | 1026 hPa | - | - | - | - |
| 1777565609 | 30° C | 12% | 1026.1 hPa | - | - | - | - |
| 1777564709 | 30.56° C | 12% | 1026.1 hPa | - | - | - | - |
| 1777563809 | 31.11° C | 12% | 1026.2 hPa | - | - | - | - |
| 1777562909 | 31.67° C | 11% | 1026.2 hPa | - | - | - | - |
| 1777562009 | 31.67° C | 11% | 1026.2 hPa | - | - | - | - |
| 1777561109 | 32.22° C | 11% | 1026.3 hPa | - | - | - | - |
* Rain since midnight (hover to see other rain measurements)
** Current wind speed in m/s (hover to see current wind gust speed)